Tracking 23758 objects as of 28-Oct-2021
HD Live streaming from Space Station
objects crossing your sky now

CZ-2D DEB

Track CZ-2D DEB now!
10-day predictions


NORAD ID: 28739
Int'l Code: 2005-024C
Perigee: 479.4 km
Apogee: 583.3 km
Inclination: 97.7 °
Period: 95.1 minutes
Semi major axis: 6902 km
RCS: 0.0168 m2 (small)
Launch date: July 5, 2005
Source: People's Republic of China (PRC)
Launch site: Jiuquan Satellite Launch Center, China (JSC)

Note: This is SATELLITE DEBRIS
aabbcc
Your satellite tracking list
Your tracking list is empty




NASA's NSSDC Master Catalog

Two Line Element Set (TLE):
1 28739U 05024C   21300.56577859  .00010560  00000-0  54660-3 0  9994
2 28739  97.6526  52.8107 0075278  50.0794 310.7020 15.13924734879526
Source of the keplerian elements: AFSPC